When you browse on this site, cookies collect data to enhance your experience and personalize the content and advertising you see.
Visit our Privacy Policy to learn more. By continuing to use the site, you agree to this use of cookies and data.
  • In Latvia
  • List of Countries
  • For 7 days
  • Water Temperature
  • Weather Map
  • Weather Widgets
  • user-avatar
    Login

    Hourly Weather Columbia

    Today, 22 September, Sunday

    Time Temperature Precipitation Wind Pressure Humidity
    00:00 +24°C° 0 mm 1 mps 765 mmHg 75%
    01:00 +24°C° 0 mm 1 mps 765 mmHg 78%
    02:00 +24°C° 0 mm 1 mps 765 mmHg 81%
    03:00 +23°C° 0 mm 1 mps 765 mmHg 83%
    04:00 +23°C° 0 mm 1 mps 764 mmHg 85%
    05:00 +23°C° 0 mm 1 mps 764 mmHg 85%
    06:00 +23°C° 0 mm 1 mps 764 mmHg 84%
    07:00 +22°C° 0 mm 0 mps 765 mmHg 79%
    08:00 +24°C° 0 mm 0 mps 765 mmHg 71%
    09:00 +27°C° 0 mm 0 mps 765 mmHg 62%
    10:00 +29°C° 0 mm 0 mps 765 mmHg 54%
    11:00 +32°C° 0 mm 1 mps 764 mmHg 51%
    12:00 +33°C° 0 mm 1 mps 763 mmHg 47%
    13:00 +34°C° 0 mm 1 mps 763 mmHg 43%
    14:00 +35°C° 0 mm 2 mps 762 mmHg 44%
    15:00 +35°C° 0 mm 2 mps 762 mmHg 45%
    16:00 +34°C° 0 mm 2 mps 761 mmHg 46%
    17:00 +32°C° 0 mm 2 mps 761 mmHg 53%
    18:00 +30°C° 0 mm 2 mps 762 mmHg 59%
    19:00 +28°C° 0 mm 2 mps 762 mmHg 66%
    20:00 +28°C° 0 mm 2 mps 762 mmHg 67%
    21:00 +27°C° 0 mm 3 mps 762 mmHg 69%
    22:00 +27°C° 0 mm 3 mps 762 mmHg 71%
    23:00 +26°C° 0 mm 3 mps 761 mmHg 72%

    Tomorrow, 23 September, Monday

    Time Temperature Precipitation Wind Pressure Humidity
    00:00 +26°C° 0 mm 3 mps 761 mmHg 73%
    01:00 +25°C° 0 mm 3 mps 761 mmHg 74%
    02:00 +25°C° 0 mm 3 mps 760 mmHg 75%
    03:00 +24°C° 0 mm 3 mps 760 mmHg 77%
    04:00 +24°C° 0 mm 2 mps 760 mmHg 79%
    05:00 +24°C° 0 mm 2 mps 760 mmHg 78%
    06:00 +24°C° 0 mm 2 mps 760 mmHg 78%
    07:00 +24°C° 0 mm 2 mps 760 mmHg 78%
    08:00 +26°C° 0 mm 2 mps 760 mmHg 69%
    09:00 +28°C° 0 mm 2 mps 759 mmHg 60%
    10:00 +31°C° 0 mm 2 mps 759 mmHg 51%
    11:00 +33°C° 0 mm 3 mps 759 mmHg 47%
    12:00 +34°C° 0 mm 3 mps 758 mmHg 42%
    13:00 +35°C° 0 mm 3 mps 758 mmHg 37%
    14:00 +35°C° 0 mm 3 mps 757 mmHg 36%
    15:00 +35°C° 0 mm 3 mps 757 mmHg 36%
    16:00 +35°C° 0 mm 3 mps 756 mmHg 36%
    17:00 +33°C° 0 mm 3 mps 756 mmHg 45%
    18:00 +30°C° 0 mm 3 mps 756 mmHg 54%
    19:00 +28°C° 0 mm 3 mps 756 mmHg 63%
    20:00 +27°C° 0.1 mm 3 mps 756 mmHg 66%
    21:00 +26°C° 0.1 mm 3 mps 756 mmHg 70%
    22:00 +26°C° 0.1 mm 3 mps 757 mmHg 74%
    23:00 +25°C° 0 mm 3 mps 757 mmHg 75%

    Day after tomorrow, 24 September, Tuesday

    Time Temperature Precipitation Wind Pressure Humidity
    00:00 +24°C° 0 mm 3 mps 757 mmHg 75%
    01:00 +24°C° 0 mm 3 mps 757 mmHg 76%
    02:00 +22°C° 0 mm 3 mps 757 mmHg 74%
    03:00 +21°C° 0 mm 3 mps 757 mmHg 71%
    04:00 +20°C° 0 mm 3 mps 757 mmHg 69%
    05:00 +20°C° 0 mm 3 mps 757 mmHg 69%
    06:00 +20°C° 0 mm 3 mps 758 mmHg 69%
    07:00 +19°C° 0 mm 3 mps 758 mmHg 70%
    08:00 +21°C° 0 mm 4 mps 758 mmHg 64%
    09:00 +22°C° 0 mm 4 mps 758 mmHg 58%
    10:00 +23°C° 0 mm 4 mps 758 mmHg 53%
    11:00 +25°C° 0 mm 4 mps 758 mmHg 50%
    12:00 +26°C° 0 mm 4 mps 758 mmHg 47%
    13:00 +27°C° 0 mm 4 mps 757 mmHg 45%
    14:00 +27°C° 0 mm 4 mps 757 mmHg 45%
    15:00 +27°C° 0 mm 4 mps 756 mmHg 46%
    16:00 +27°C° 0 mm 4 mps 756 mmHg 46%
    17:00 +25°C° 0 mm 3 mps 756 mmHg 49%
    18:00 +24°C° 0 mm 3 mps 757 mmHg 53%
    19:00 +23°C° 0 mm 2 mps 757 mmHg 56%
    20:00 +21°C° 0 mm 2 mps 757 mmHg 56%
    21:00 +21°C° 0 mm 2 mps 758 mmHg 56%
    22:00 +20°C° 0 mm 2 mps 758 mmHg 56%
    23:00 +20°C° 0 mm 2 mps 758 mmHg 59%

    25 September, Wednesday

    Time Temperature Precipitation Wind Pressure Humidity
    00:00 +19°C° 0 mm 2 mps 758 mmHg 61%
    01:00 +18°C° 0 mm 2 mps 757 mmHg 64%
    02:00 +18°C° 0 mm 2 mps 758 mmHg 65%
    03:00 +17°C° 0 mm 2 mps 758 mmHg 66%
    04:00 +17°C° 0 mm 2 mps 758 mmHg 67%
    05:00 +17°C° 0 mm 2 mps 758 mmHg 67%
    06:00 +18°C° 0 mm 1 mps 759 mmHg 67%
    07:00 +18°C° 0 mm 1 mps 759 mmHg 67%
    08:00 +20°C° 0 mm 1 mps 759 mmHg 59%
    09:00 +23°C° 0 mm 1 mps 759 mmHg 50%
    10:00 +25°C° 0 mm 1 mps 759 mmHg 42%
    11:00 +26°C° 0 mm 2 mps 758 mmHg 39%
    12:00 +27°C° 0 mm 2 mps 758 mmHg 37%
    13:00 +28°C° 0 mm 2 mps 757 mmHg 34%
    14:00 +28°C° 0 mm 2 mps 757 mmHg 35%
    15:00 +28°C° 0 mm 2 mps 757 mmHg 37%
    16:00 +28°C° 0 mm 2 mps 756 mmHg 38%
    17:00 +26°C° 0 mm 2 mps 756 mmHg 43%
    18:00 +25°C° 0 mm 2 mps 757 mmHg 48%
    19:00 +23°C° 0 mm 1 mps 757 mmHg 53%
    20:00 +21°C° 0 mm 2 mps 757 mmHg 56%
    21:00 +21°C° 0 mm 2 mps 757 mmHg 59%
    22:00 +20°C° 0 mm 2 mps 757 mmHg 62%
    23:00 +20°C° 0 mm 2 mps 757 mmHg 65%

    26 September, Thursday

    Time Temperature Precipitation Wind Pressure Humidity
    00:00 +19°C° 0 mm 2 mps 757 mmHg 68%
    01:00 +19°C° 0 mm 2 mps 756 mmHg 71%
    02:00 +19°C° 0 mm 2 mps 756 mmHg 73%
    03:00 +19°C° 0 mm 2 mps 756 mmHg 75%
    04:00 +19°C° 0 mm 1 mps 756 mmHg 78%
    05:00 +20°C° 0 mm 1 mps 756 mmHg 77%
    06:00 +20°C° 0 mm 1 mps 756 mmHg 76%
    07:00 +20°C° 0 mm 1 mps 756 mmHg 76%
    08:00 +23°C° 0 mm 2 mps 755 mmHg 66%
    09:00 +25°C° 0 mm 2 mps 755 mmHg 57%
    10:00 +27°C° 0 mm 2 mps 755 mmHg 48%
    11:00 +29°C° 0 mm 2 mps 755 mmHg 44%
    12:00 +30°C° 0 mm 3 mps 755 mmHg 41%
    13:00 +33°C° 0 mm 3 mps 755 mmHg 38%
    14:00 +30°C° 0 mm 3 mps 755 mmHg 46%
    15:00 +28°C° 0 mm 3 mps 755 mmHg 55%
    16:00 +27°C° 0 mm 3 mps 755 mmHg 63%
    17:00 +25°C° 0 mm 3 mps 756 mmHg 65%
    18:00 +24°C° 0 mm 3 mps 757 mmHg 67%
    19:00 +22°C° 0 mm 3 mps 758 mmHg 70%
    20:00 +21°C° 0 mm 3 mps 759 mmHg 69%
    21:00 +20°C° 0 mm 2 mps 760 mmHg 69%
    22:00 +21°C° 0 mm 1 mps 760 mmHg 69%
    23:00 +20°C° 0 mm 1 mps 761 mmHg 70%

    27 September, Friday

    Time Temperature Precipitation Wind Pressure Humidity
    00:00 +20°C° 0 mm 1 mps 761 mmHg 72%
    01:00 +18°C° 0 mm 2 mps 761 mmHg 74%
    02:00 +18°C° 0 mm 2 mps 762 mmHg 72%
    03:00 +18°C° 0 mm 1 mps 762 mmHg 71%
    04:00 +18°C° 0 mm 1 mps 763 mmHg 69%
    05:00 +18°C° 0 mm 1 mps 763 mmHg 68%
    06:00 +18°C° 0 mm 1 mps 764 mmHg 67%
    07:00 +18°C° 0 mm 1 mps 764 mmHg 66%
    08:00 +20°C° 0 mm 1 mps 764 mmHg 59%
    09:00 +22°C° 0 mm 1 mps 765 mmHg 52%
    10:00 +25°C° 0 mm 1 mps 765 mmHg 45%
    11:00 +26°C° 0 mm 2 mps 765 mmHg 43%
    12:00 +27°C° 0 mm 2 mps 764 mmHg 41%
    13:00 +28°C° 0 mm 2 mps 764 mmHg 38%
    14:00 +28°C° 0 mm 2 mps 764 mmHg 41%
    15:00 +27°C° 0 mm 2 mps 763 mmHg 44%
    16:00 +27°C° 0 mm 3 mps 763 mmHg 48%
    17:00 +25°C° 0 mm 3 mps 764 mmHg 51%
    18:00 +24°C° 0 mm 3 mps 764 mmHg 54%
    19:00 +21°C° 0 mm 3 mps 764 mmHg 57%
    20:00 +21°C° 0 mm 3 mps 765 mmHg 62%
    21:00 +20°C° 0 mm 3 mps 765 mmHg 67%
    22:00 +20°C° 0 mm 3 mps 765 mmHg 72%
    23:00 +19°C° 0 mm 3 mps 765 mmHg 74%
    Show more